sat.trackr.live / text

‹ back to catalog

STARLINK-37077

NORAD 68169 · 2026-050C

PAYLOAD ACTIVE UNKNOWN

§ Identity

Operator
Country
US
Launch date
2026-03-14
Launch site
AFETR
Launch vehicle
Mass (kg)
RCS (m²)

Purposes: comms

External: N2YO · Heavens-Above · Gunter

§ Orbital elements

Epoch: 2026-05-24T18:30:01.653408Z

Period
93.58 min
Inclination
53.1572°
Eccentricity
0.0001041
Mean motion
15.38846789 rev/d
Perigee alt
448.8 km
Apogee alt
450.2 km
Semi-major
6,827.7 km
B*
8.3299e-4
RAAN
273.2210°
Arg perigee
65.9299°
Mean anomaly
294.1814°
Rev number
1,233

§ Raw data

STARLINK-370771 68169U 26050C   26144.77085247  .00032226  00000+0  83299-3 0  99982 68169  53.1572 273.2210 0001041  65.9299 294.1814 15.38846789 12335

JSON: /api/v1/satellites/68169 · /tle

For live sub-satellite position, see the globe view (requires WebGL).

§ Visibility from observer

Set your observer location to see the next 7 days of passes ≥ 10°. The values pass through the URL so the page stays shareable.

No JS? Fill the form by hand. The geolocation button needs JavaScript.